ENBN Weather Reports


time (UTC)temp
C
wind
direction
speed
KPH
gust
KPH
rain 1hr
cm
rain 24hr
cm
rain mn
cm
humidity
%
barometer
mb
20260507130307 5 240 19.3 0.0 0.00 0.00 0.00 80 1017.0
20260507123308 5 200 20.9 0.0 0.00 0.00 0.00 75 1017.0
20260507120307 5 200 20.9 0.0 0.00 0.00 0.00 86 1017.0
20260507113308 3 210 25.7 0.0 0.00 0.00 0.00 86 1017.0
20260507110307 5 210 25.7 0.0 0.00 0.00 0.00 80 1016.0
20260507103307 5 220 25.7 0.0 0.00 0.00 0.00 75 1016.0
20260507100308 5 210 22.5 0.0 0.00 0.00 0.00 80 1016.0
20260507093307 5 200 14.5 0.0 0.00 0.00 0.00 70 1016.0
20260507090308 5 200 16.1 0.0 0.00 0.00 0.00 70 1015.0
20260507083307 6 190 14.5 0.0 0.00 0.00 0.00 70 1015.0
20260507080308 6 190 16.1 0.0 0.00 0.00 0.00 70 1015.0
20260507073307 5 210 20.9 0.0 0.00 0.00 0.00 75 1015.0
20260507070307 5 200 20.9 0.0 0.00 0.00 0.00 80 1014.0
20260507063307 3 190 19.3 0.0 0.00 0.00 0.00 80 1014.0
20260507053307 2 190 16.1 0.0 0.00 0.00 0.00 86 1014.0
20260507050307 2 200 11.3 0.0 0.00 0.00 0.00 86 1014.0
20260507043308 1 180 12.9 0.0 0.00 0.00 0.00 93 1014.0
20260507040308 1 200 22.5 0.0 0.00 0.00 0.00 93 1014.0
20260507033307 2 190 19.3 0.0 0.00 0.00 0.00 86 1013.0
20260507030306 2 200 12.9 0.0 0.00 0.00 0.00 86 1013.0
20260507023307 2 200 12.9 0.0 0.00 0.00 0.00 86 1013.0
20260507020307 1 220 19.3 0.0 0.00 0.00 0.00 93 1013.0
20260507013307 2 190 16.1 0.0 0.00 0.00 0.00 80 1013.0
20260507010306 2 190 12.9 0.0 0.00 0.00 0.00 80 1013.0
20260507003307 2 200 16.1 0.0 0.00 0.00 0.00 86 1013.0
20260507000307 2 190 16.1 0.0 0.00 0.00 0.00 86 1013.0
20260506233307 2 180 14.5 0.0 0.00 0.00 0.00 86 1012.0
20260506230307 2 180 9.7 0.0 0.00 0.00 0.00 86 1012.0
20260506223307 2 0 3.2 0.0 0.00 0.00 0.00 86 1012.0
20260506220307 1 100 12.9 0.0 0.00 0.00 0.00 93 1012.0
20260506213307 1 90 11.3 0.0 0.00 0.00 0.00 93 1012.0
20260506210307 2 260 8.0 0.0 0.00 0.00 0.00 86 1012.0
20260506203306 2 210 9.7 0.0 0.00 0.00 0.00 86 1012.0
20260506200306 2 140 9.7 0.0 0.00 0.00 0.00 93 1012.0
20260506193307 3 150 14.5 0.0 0.00 0.00 0.00 86 1012.0
20260506190306 2 100 11.3 0.0 0.00 0.00 0.00 93 1011.0
20260506183307 1 110 11.3 0.0 0.00 0.00 0.00 93 1012.0
20260506180307 1 230 11.3 0.0 0.00 0.00 0.00 93 1012.0
20260506173308 2 290 8.0 0.0 0.00 0.00 0.00 93 1012.0
20260506170307 2 300 16.1 0.0 0.00 0.00 0.00 86 1011.0
20260506163307 5 200 14.5 0.0 0.00 0.00 0.00 80 1011.0
20260506160307 5 200 14.5 0.0 0.00 0.00 0.00 80 1011.0
20260506153307 3 190 16.1 0.0 0.00 0.00 0.00 86 1011.0
20260506150307 3 200 16.1 0.0 0.00 0.00 0.00 86 1011.0
20260506143307 3 280 19.3 0.0 0.00 0.00 0.00 86 1011.0
20260506140307 5 280 9.7 0.0 0.00 0.00 0.00 80 1011.0
20260506133307 5 290 14.5 0.0 0.00 0.00 0.00 80 1010.0